Flag for U.S.A. Weather past 2 weeks in Myrtle Beach, South Carolina, U.S.A.

Now
70 °F

Mostly cloudy.


Feels Like: 70 °F
Forecast: 69 / 79 °F
Wind: 6 mph from North

Location: Myrtle Beach Air Force Base

Current Time: Sep 15, 2014 at 12:48:34 AM

Latest Report: Sep 15, 2014 at 12:15 AM


Visibility: 10 mi

Pressure: 30.19 "Hg

Humidity: 83%

Dew point: 64 °F

Location of Myrtle BeachLocation

Historic Weather in Myrtle Beach — Graph

°F

Myrtle Beach temperature yesterday

Maximum temperature yesterday: 77 °F (at 12:15 AM)
Minimum temperature yesterday: 68 °F (at 9:45 AM)
Average temperature yesterday: 73 °F

Past Weeks' High & Low Weather Summary

 TemperatureHumidityPressure
High91 °F (Sep 2, 11:45 AM)94% (Sep 7, 6:50 AM)30.21 "Hg (Sep 7, 6:50 AM)
Low68 °F (Sep 14, 9:45 AM)58% (Sep 10, 4:47 PM)29.96 "Hg (Sep 6, 5:50 PM)
Average80 °F78%30.07 "Hg
* Reported Aug 30 11:15 PM — Sep 14 11:35 PM, Myrtle Beach, Weather by CustomWeather, © 2014

Note: Actual official high and low records may vary slightly from our data, if they occured in-between our weather recording intervals... More about our weather records

Advertising

Myrtle Beach weather history for previous 24 hours

 ConditionsComfort  
Time TempWeatherWind HumidityBarometerVisibility
11:35 PM
Sep 14
70 °FPartly cloudy.6 mph83%30.20 "Hg10 mi
11:15 PM70 °FMostly cloudy.5 mph83%30.20 "Hg10 mi
10:55 PM70 °FOvercast.7 mph83%30.20 "Hg10 mi
9:50 PM72 °FOvercast.7 mph78%30.19 "Hg10 mi
8:50 PM72 °FOvercast.8 mph78%30.19 "Hg10 mi
7:45 PM72 °FOvercast.8 mph83%30.17 "Hg10 mi
6:50 PM73 °FOvercast.8 mph78%30.17 "Hg7 mi
5:50 PM75 °FOvercast.7 mph74%30.16 "Hg8 mi
4:50 PM73 °FMild.10 mph78%30.17 "Hg9 mi
3:55 PM75 °FOvercast.10 mph74%30.17 "Hg7 mi
2:45 PM73 °FOvercast.7 mph78%30.19 "Hg7 mi
1:46 PM73 °FOvercast.8 mph78%30.20 "Hg7 mi
12:45 PM73 °FLow clouds.9 mph78%30.20 "Hg7 mi
11:45 AM72 °FLow clouds.9 mph83%30.20 "Hg7 mi
10:45 AM70 °FLow clouds.9 mph83%30.21 "Hg7 mi
9:45 AM68 °FLow clouds.12 mph88%30.20 "Hg7 mi
8:50 AM70 °FLow clouds.13 mph83%30.18 "Hg7 mi
7:45 AM73 °FLow clouds.10 mph89%30.16 "Hg7 mi
6:50 AM73 °FFog.8 mph89%30.15 "Hg5 mi
6:35 AM73 °FLow clouds.10 mph89%30.15 "Hg10 mi
6:15 AM73 °FMostly cloudy.8 mph89%30.13 "Hg10 mi
5:55 AM73 °FPassing clouds.9 mph89%30.12 "Hg10 mi
5:35 AM73 °FOvercast.8 mph89%30.12 "Hg10 mi
5:15 AM73 °FPassing clouds.9 mph89%30.12 "Hg10 mi
4:55 AM73 °FPartly cloudy.8 mph89%30.11 "Hg10 mi
4:35 AM73 °FPartly cloudy.6 mph89%30.11 "Hg10 mi
4:15 AM75 °FPartly cloudy.7 mph89%30.11 "Hg10 mi
3:55 AM75 °FPassing clouds.3 mph89%30.11 "Hg10 mi
3:35 AM75 °FPassing clouds.7 mph89%30.10 "Hg10 mi
3:15 AM75 °FThunderstorms. Passing clouds.8 mph94%30.10 "Hg10 mi
2:55 AM75 °FThunderstorms. Partly cloudy.9 mph89%30.10 "Hg10 mi
2:35 AM75 °FPartly cloudy.5 mph89%30.09 "Hg10 mi
2:15 AM75 °FPartly cloudy.6 mph83%30.10 "Hg10 mi
1:55 AM75 °FThunderstorms. Partly cloudy.6 mph83%30.10 "Hg10 mi
1:35 AM75 °FThunderstorms. Overcast.13 mph83%30.11 "Hg3 mi
1:15 AM77 °FOvercast.6 mph89%30.11 "Hg7 mi
12:55 AM77 °FPartly cloudy.3 mph89%30.11 "Hg10 mi
12:35 AM77 °FPassing clouds.No wind89%30.10 "Hg10 mi
12:15 AM77 °FClear.No wind89%30.10 "Hg10 mi
Weather by CustomWeather, © 2014

See weather overviewHow to use our weather pages